VINASAT-1

Last updated on Thu Nov 21 2024 00:02:41 GMT+0000 (Coordinated Universal Time)

1 32767U 08018A 24325.17838081 -.00000327 00000+0 00000+0 0 9995 2 32767 0.0145 328.9807 0002650 292.1817 354.6898 1.00268833 60838
UTC large
Height (km)
Speed (km/s)
/
Latitude / Longitude
Inclination (degrees)
Orbital Period (minutes)
Azimuth
Elevation
Range (km)
Doppler Factor

Next 0 passes for location: London (51.5072 / 0.1276)

Sorry there are no passes over London.